Location: Bessat
(45.8735°N, 1.9924°E)
Time: 04:46:11
(UTC+00:00)

S3M - Pass Details

Date: 11 May 2021
Orbit: 948 x 1005 km, 83.0° (Epoch: 14 June)

Event Time Altitude Azimuth Distance (km) Brightness Sun altitude
Rises 19:34:33 0° 172° (S) 3,717 6.7 -4.2°
Reaches altitude 10° 19:37:08 10° 168° (SSE) 2,769 6.0 -4.5°
Maximum altitude 19:43:19 56° 92° (E) 1,179 4.2 -5.5°
Drops below altitude 10° 19:49:28 10° 16° (NNE) 2,760 6.6 -6.3°
Sets 19:52:02 0° 13° (NNE) 3,704 7.3 -6.7°
